TimeCST,TemperatureF,Dew PointF,Humidity,Sea Level PressureIn,VisibilityMPH,Wind Direction,Wind SpeedMPH,Gust SpeedMPH,PrecipitationIn,Events,Conditions,WindDirDegrees,DateUTC
12:23 AM,28.4,28.4,100,30.14,2.0,SSE,3.5,-,N/A,,Overcast,150,2012-12-01 06:23:00
12:53 AM,30.0,28.9,96,30.21,2.0,SSE,4.6,-,N/A,,Overcast,150,2012-12-01 06:53:00
1:10 AM,30.2,28.4,93,30.13,1.8,SE,5.8,-,N/A,,Overcast,130,2012-12-01 07:10:00
1:53 AM,30.9,30.0,96,30.19,1.5,SSE,6.9,-,N/A,,Overcast,150,2012-12-01 07:53:00
3:44 AM,30.2,30.2,100,30.07,1.8,SE,6.9,-,N/A,,Overcast,140,2012-12-01 09:44:00
3:53 AM,30.9,30.0,96,30.14,1.8,SSE,9.2,-,N/A,,Overcast,160,2012-12-01 09:53:00
4:53 AM,30.9,30.9,100,30.14,1.2,SE,6.9,-,N/A,,Overcast,140,2012-12-01 10:53:00
5:21 AM,30.2,30.2,100,30.04,0.8,SE,10.4,-,N/A,,Overcast,140,2012-12-01 11:21:00
5:53 AM,32.0,30.9,96,30.09,0.8,SSE,10.4,-,N/A,,Overcast,160,2012-12-01 11:53:00
6:05 AM,32.0,30.2,93,30.02,1.0,SE,11.5,-,N/A,,Overcast,140,2012-12-01 12:05:00
6:53 AM,32.0,30.9,96,30.09,1.5,SSE,10.4,-,N/A,,Overcast,160,2012-12-01 12:53:00
7:39 AM,32.0,32.0,100,30.00,0.8,SE,6.9,-,N/A,,Overcast,140,2012-12-01 13:39:00
7:53 AM,32.0,32.0,100,30.06,0.2,SSE,9.2,-,N/A,Fog,Fog,160,2012-12-01 13:53:00
8:10 AM,33.8,32.0,93,29.99,0.5,SE,8.1,17.3,N/A,Fog,Fog,140,2012-12-01 14:10:00
8:53 AM,33.1,32.0,96,30.04,0.5,SSE,10.4,18.4,N/A,Fog,Fog,160,2012-12-01 14:53:00
9:06 AM,33.8,33.8,100,29.97,0.2,SSE,8.1,-,N/A,Fog,Fog,150,2012-12-01 15:06:00
9:28 AM,33.8,33.8,100,29.97,0.5,SSE,13.8,19.6,N/A,Fog,Fog,160,2012-12-01 15:28:00
9:53 AM,34.0,33.1,96,30.03,0.5,SSE,9.2,16.1,N/A,Fog,Fog,160,2012-12-01 15:53:00
10:41 AM,33.8,33.8,100,29.94,1.0,SSE,10.4,-,N/A,,Overcast,150,2012-12-01 16:41:00
11:53 AM,36.0,34.0,93,29.98,1.2,South,8.1,-,N/A,,Overcast,170,2012-12-01 17:53:00
12:53 PM,35.1,34.0,96,29.91,1.0,SE,11.5,-,N/A,,Overcast,140,2012-12-01 18:53:00
1:12 PM,35.6,33.8,93,29.87,0.8,South,6.9,-,N/A,,Overcast,170,2012-12-01 19:12:00
1:43 PM,35.6,35.6,100,29.85,1.0,SSE,6.9,-,0.00,Rain,Light Rain,150,2012-12-01 19:43:00
1:53 PM,36.0,35.1,97,29.90,1.2,SSE,5.8,-,0.00,Rain,Light Rain,150,2012-12-01 19:53:00
2:46 PM,37.4,35.6,93,29.80,2.0,SSE,8.1,-,0.00,,Overcast,150,2012-12-01 20:46:00
2:53 PM,37.0,35.1,93,29.85,2.0,SSE,4.6,-,0.00,,Overcast,150,2012-12-01 20:53:00
3:15 PM,37.4,35.6,93,29.79,2.5,SSE,4.6,-,N/A,,Overcast,160,2012-12-01 21:15:00
3:53 PM,37.9,36.0,93,29.84,2.5,SSE,6.9,-,N/A,,Overcast,160,2012-12-01 21:53:00
4:18 PM,37.4,35.6,93,29.78,3.0,South,8.1,-,N/A,,Overcast,170,2012-12-01 22:18:00
4:25 PM,37.4,35.6,93,29.78,2.5,South,6.9,16.1,N/A,,Overcast,170,2012-12-01 22:25:00
4:42 PM,37.4,37.4,100,29.78,1.8,South,8.1,-,N/A,,Overcast,170,2012-12-01 22:42:00
4:53 PM,37.9,37.0,97,29.83,1.2,South,6.9,-,N/A,,Overcast,170,2012-12-01 22:53:00
5:26 PM,37.4,37.4,100,29.77,0.8,SSE,8.1,-,N/A,,Overcast,160,2012-12-01 23:26:00
5:53 PM,37.9,37.0,97,29.81,0.5,SSE,8.1,-,N/A,Fog,Fog,160,2012-12-01 23:53:00
6:53 PM,37.9,37.9,100,29.83,0.2,SSW,5.8,-,N/A,Fog,Fog,210,2012-12-02 00:53:00
7:06 PM,39.2,37.4,93,29.78,0.5,SW,4.6,-,N/A,Fog,Fog,230,2012-12-02 01:06:00
7:36 PM,39.2,37.4,93,29.78,1.0,SW,6.9,-,0.01,,Overcast,230,2012-12-02 01:36:00
7:53 PM,37.9,37.9,100,29.83,0.8,SW,4.6,-,0.01,,Overcast,230,2012-12-02 01:53:00
8:48 PM,37.4,37.4,100,29.78,0.2,SW,3.5,-,N/A,Fog,Fog,220,2012-12-02 02:48:00
8:53 PM,37.9,37.0,97,29.83,0.2,SW,4.6,-,N/A,Fog,Fog,220,2012-12-02 02:53:00
9:46 PM,37.4,37.4,100,29.77,0.2,SSW,3.5,-,N/A,Fog,Fog,210,2012-12-02 03:46:00
9:53 PM,37.9,37.0,97,29.81,0.2,SW,4.6,-,N/A,Fog,Fog,230,2012-12-02 03:53:00
10:28 PM,37.4,37.4,100,29.77,0.2,WSW,5.8,-,N/A,Fog,Fog,240,2012-12-02 04:28:00
10:53 PM,37.9,37.9,100,29.81,0.2,SW,4.6,-,N/A,Fog,Fog,220,2012-12-02 04:53:00
11:53 PM,37.9,37.9,100,29.83,0.2,WSW,4.6,-,N/A,Fog,Fog,250,2012-12-02 05:53:00